TimeEST,TemperatureF,Dew PointF,Humidity,Sea Level PressureIn,VisibilityMPH,Wind Direction,Wind SpeedMPH,Gust SpeedMPH,PrecipitationIn,Events,Conditions,WindDirDegrees,DateUTC
12:15 AM,16.5,9.1,73,30.04,10.0,West,9.2,-,N/A,,Clear,270,2013-01-02 05:15:00
12:34 AM,16.0,9.0,74,30.03,10.0,West,11.5,-,N/A,,Scattered Clouds,270,2013-01-02 05:34:00
12:54 AM,16.7,9.5,73,30.04,10.0,West,10.4,-,N/A,,Mostly Cloudy,270,2013-01-02 05:54:00
1:15 AM,17.4,10.0,73,30.04,10.0,WSW,10.4,-,N/A,,Overcast,250,2013-01-02 06:15:00
1:34 AM,17.6,10.2,73,30.04,10.0,WSW,11.5,16.1,N/A,,Overcast,250,2013-01-02 06:34:00
1:54 AM,18.0,10.0,71,30.03,10.0,West,11.5,-,N/A,,Overcast,260,2013-01-02 06:54:00
2:15 AM,18.0,10.4,72,30.04,10.0,West,8.1,-,N/A,,Overcast,260,2013-01-02 07:15:00
2:34 AM,18.1,10.2,71,30.04,10.0,West,11.5,16.1,N/A,,Overcast,260,2013-01-02 07:34:00
2:55 AM,18.5,10.4,71,30.04,10.0,West,12.7,17.3,N/A,,Overcast,260,2013-01-02 07:55:00
3:14 AM,18.5,10.4,71,30.04,10.0,West,10.4,-,N/A,,Overcast,260,2013-01-02 08:14:00
3:34 AM,18.5,10.8,72,30.04,10.0,West,11.5,-,N/A,,Overcast,260,2013-01-02 08:34:00
3:55 AM,18.5,10.4,71,30.05,10.0,West,10.4,-,N/A,,Overcast,260,2013-01-02 08:55:00
4:14 AM,18.5,10.6,71,30.05,10.0,West,10.4,18.4,N/A,,Overcast,260,2013-01-02 09:14:00
4:34 AM,18.5,11.1,73,30.06,10.0,West,10.4,-,N/A,,Overcast,260,2013-01-02 09:34:00
4:54 AM,18.9,10.8,71,30.07,10.0,West,11.5,-,N/A,,Overcast,260,2013-01-02 09:54:00
5:14 AM,18.5,10.9,72,30.07,10.0,WSW,9.2,-,N/A,,Overcast,250,2013-01-02 10:14:00
5:34 AM,18.3,10.6,72,30.06,10.0,WSW,9.2,-,N/A,,Overcast,240,2013-01-02 10:34:00
5:55 AM,18.1,10.8,73,30.06,10.0,WSW,8.1,-,N/A,,Overcast,250,2013-01-02 10:55:00
6:14 AM,18.3,10.9,73,30.06,10.0,WSW,6.9,-,N/A,,Overcast,250,2013-01-02 11:14:00
6:34 AM,18.5,11.3,73,30.07,10.0,West,10.4,16.1,N/A,,Overcast,260,2013-01-02 11:34:00
6:55 AM,18.9,11.7,74,30.08,10.0,WSW,8.1,-,N/A,,Overcast,250,2013-01-02 11:55:00
7:14 AM,19.4,12.4,74,30.08,10.0,West,8.1,-,N/A,Snow,Light Snow,260,2013-01-02 12:14:00
7:35 AM,19.6,12.7,75,30.08,10.0,West,8.1,-,N/A,Snow,Light Snow,270,2013-01-02 12:35:00
7:55 AM,19.9,13.1,75,30.08,10.0,West,9.2,-,N/A,,Overcast,260,2013-01-02 12:55:00
8:14 AM,20.1,13.5,75,30.09,10.0,West,8.1,-,N/A,Snow,Light Snow,270,2013-01-02 13:14:00
8:35 AM,20.3,13.8,76,30.09,10.0,West,8.1,-,N/A,,Overcast,270,2013-01-02 13:35:00
8:55 AM,20.7,13.5,74,30.10,10.0,WNW,9.2,-,N/A,,Overcast,290,2013-01-02 13:55:00
9:14 AM,20.8,13.3,73,30.10,10.0,WNW,6.9,-,N/A,Snow,Light Snow,290,2013-01-02 14:14:00
9:35 AM,21.2,13.1,71,30.10,10.0,West,10.4,-,N/A,Snow,Light Snow,280,2013-01-02 14:35:00
10:14 AM,21.7,13.6,71,30.11,10.0,West,11.5,-,N/A,Snow,Light Snow,260,2013-01-02 15:14:00
10:35 AM,21.7,14.2,73,30.12,10.0,WSW,9.2,-,N/A,,Overcast,240,2013-01-02 15:35:00
10:54 AM,22.1,14.5,73,30.12,10.0,WSW,10.4,-,N/A,,Overcast,250,2013-01-02 15:54:00
11:14 AM,22.3,14.5,72,30.13,10.0,WSW,9.2,-,N/A,,Overcast,240,2013-01-02 16:14:00
11:35 AM,22.5,14.9,73,30.13,10.0,WSW,8.1,-,N/A,Snow,Light Snow,240,2013-01-02 16:35:00
11:54 AM,22.8,15.4,73,30.12,10.0,WSW,11.5,-,N/A,Snow,Light Snow,250,2013-01-02 16:54:00
12:14 PM,23.0,15.6,73,30.12,10.0,WSW,8.1,-,N/A,Snow,Light Snow,250,2013-01-02 17:14:00
12:35 PM,23.4,15.6,72,30.12,10.0,WSW,12.7,-,N/A,Snow,Light Snow,250,2013-01-02 17:35:00
12:54 PM,23.9,16.0,72,30.11,7.0,WSW,10.4,-,N/A,Snow,Light Snow,250,2013-01-02 17:54:00
1:14 PM,23.9,16.0,72,30.11,10.0,West,9.2,-,N/A,Snow,Light Snow,260,2013-01-02 18:14:00
1:35 PM,24.4,15.6,69,30.10,10.0,West,9.2,-,N/A,Snow,Light Snow,260,2013-01-02 18:35:00
1:54 PM,24.6,15.4,68,30.11,10.0,West,9.2,-,N/A,,Overcast,260,2013-01-02 18:54:00
2:15 PM,24.6,15.3,68,30.11,10.0,WSW,9.2,-,N/A,,Overcast,250,2013-01-02 19:15:00
2:35 PM,24.8,15.8,69,30.11,10.0,West,10.4,-,N/A,,Overcast,260,2013-01-02 19:35:00
2:54 PM,24.8,15.6,68,30.11,10.0,WSW,9.2,-,N/A,,Overcast,240,2013-01-02 19:54:00
3:15 PM,24.8,14.7,66,30.11,10.0,West,6.9,-,N/A,,Overcast,260,2013-01-02 20:15:00
3:34 PM,25.0,15.3,67,30.11,10.0,West,11.5,-,N/A,,Overcast,270,2013-01-02 20:34:00
3:54 PM,24.8,14.9,66,30.11,10.0,WSW,6.9,-,N/A,,Overcast,250,2013-01-02 20:54:00
4:15 PM,24.8,15.3,67,30.12,10.0,WSW,4.6,-,N/A,,Overcast,240,2013-01-02 21:15:00
4:34 PM,24.6,15.4,68,30.12,10.0,WSW,6.9,-,N/A,,Overcast,240,2013-01-02 21:34:00
4:55 PM,24.4,15.8,70,30.12,10.0,WSW,4.6,-,N/A,,Overcast,240,2013-01-02 21:55:00
5:14 PM,24.4,16.3,71,30.13,10.0,WSW,9.2,-,N/A,,Overcast,250,2013-01-02 22:14:00
5:34 PM,24.3,15.3,69,30.13,10.0,SW,6.9,-,N/A,,Overcast,220,2013-01-02 22:34:00
5:55 PM,23.9,14.9,69,30.13,10.0,SW,3.5,-,N/A,,Overcast,220,2013-01-02 22:55:00
6:14 PM,23.9,15.8,71,30.13,10.0,Calm,Calm,-,N/A,,Overcast,0,2013-01-02 23:14:00
6:34 PM,23.7,16.5,74,30.13,10.0,SW,3.5,-,N/A,,Overcast,220,2013-01-02 23:34:00
6:55 PM,23.9,16.3,73,30.14,10.0,Calm,Calm,-,N/A,,Overcast,0,2013-01-02 23:55:00
7:14 PM,23.9,16.3,73,30.14,10.0,Calm,Calm,-,N/A,,Overcast,0,2013-01-03 00:14:00
7:34 PM,23.7,16.7,75,30.14,10.0,SSW,3.5,-,N/A,,Overcast,200,2013-01-03 00:34:00
7:55 PM,23.9,16.7,74,30.15,10.0,SSW,3.5,-,N/A,,Overcast,200,2013-01-03 00:55:00
8:14 PM,23.9,16.3,73,30.15,10.0,South,3.5,-,N/A,,Overcast,190,2013-01-03 01:14:00
8:35 PM,23.9,16.3,73,30.14,10.0,Calm,Calm,-,N/A,,Overcast,0,2013-01-03 01:35:00
8:54 PM,23.9,16.7,74,30.13,10.0,SSE,3.5,-,N/A,,Overcast,150,2013-01-03 01:54:00
9:14 PM,23.9,16.7,74,30.12,10.0,SSE,3.5,-,N/A,,Overcast,160,2013-01-03 02:14:00
9:34 PM,23.9,17.1,75,30.12,10.0,Calm,Calm,-,N/A,,Overcast,0,2013-01-03 02:34:00
9:54 PM,23.9,17.2,76,30.12,10.0,SSE,3.5,-,N/A,,Overcast,160,2013-01-03 02:54:00
10:15 PM,23.9,17.6,77,30.12,10.0,Calm,Calm,-,N/A,,Overcast,0,2013-01-03 03:15:00
10:34 PM,24.3,18.0,77,30.12,10.0,Calm,Calm,-,N/A,,Overcast,0,2013-01-03 03:34:00
10:55 PM,24.3,18.3,78,30.12,10.0,Calm,Calm,-,N/A,,Overcast,0,2013-01-03 03:55:00
11:15 PM,24.3,18.5,79,30.11,10.0,Calm,Calm,-,N/A,,Overcast,0,2013-01-03 04:15:00
11:34 PM,24.4,18.9,79,30.11,10.0,Calm,Calm,-,N/A,,Overcast,0,2013-01-03 04:34:00
11:55 PM,24.6,19.2,80,30.11,10.0,South,3.5,-,N/A,,Overcast,180,2013-01-03 04:55:00